Weather History for Jackson Hawkins Field, MS

Change the Weather History Date:

Saturday, October 6, 2012

  Actual Average (KJAN) Record (KJAN)
Temperature  
Mean Temperature 60 °F 68 °F  
Max Temperature 69 °F 80 °F 97 °F (1911)
Min Temperature 53 °F 57 °F 36 °F (1932)
Degree Days  
Heating Degree Days 4 1  
Month to date heating degree days 6  
Since 1 July heating degree days 13  
Cooling Degree Days 0 5  
Month to date cooling degree days 33  
Year to date cooling degree days 2159  
Growing Degree Days 10 (Base 50)    
Moisture  
Dew Point 55 °F    
Average Humidity 82    
Maximum Humidity 96    
Minimum Humidity 68    
Precipitation  
Precipitation 0.00 in 0.12 in 2.25 in (1982)
Month to date precipitation 0.71  
Year to date precipitation 41.02  
Sea Level Pressure  
Sea Level Pressure 30.06 in    
Wind  
Wind Speed 5 mph (NNW)    
Max Wind Speed 9 mph    
Max Gust Speed 17 mph    
Visibility 10 miles    
Events      
T = Trace of Precipitation, MM = Missing Value Source: NWS Daily Summary

Daily Weather History Graph

Daily Weather History Graph

Search for Another Location

Airport:

Trip Planner

Search our weather history database for the weather conditions in past years. The results will help you decide how hot, cold, wet, or windy it might be!

Date:

Astronomy

Oct. 06, 2012 Rise Set
Actual Time 6:58 AM CDT 6:38 PM CDT
Civil Twilight 6:34 AM CDT 7:03 PM CDT
Nautical Twilight 6:05 AM CDT 7:31 PM CDT
Astronomical Twilight 5:37 AM CDT 7:59 PM CDT
Moon 11:09 PM CDT (10/6) 12:37 PM CDT (10/6)
Length of Visible Light 12h 29m
Length of Day
11h 39m
Waning Gibbous, 65% of the Moon is Illuminated
Oct 6
Waning Gibbous
Oct 8
Last Quarter
Oct 15
New
Oct 21
First Quarter
Oct 29
Full

Hourly Weather History & Observations

Time (CDT) Temp. Dew Point Humidity Pressure Visibility Wind Dir Wind Speed Gust Speed Precip Events Conditions
12:53 AM 66.9 °F 63.0 °F 87% 30.01 in 9.0 mi Calm Calm - N/A   Clear
1:53 AM 64.9 °F 63.0 °F 93% 30.00 in 8.0 mi Calm Calm - N/A   Clear
2:53 AM 68.0 °F 63.0 °F 84% 29.99 in 10.0 mi Calm Calm - N/A   Mostly Cloudy
3:44 AM 66.2 °F 62.6 °F 88% 30.03 in 9.0 mi NNW 6.9 mph - N/A   Overcast
3:53 AM 66.0 °F 63.0 °F 90% 30.01 in 8.0 mi NW 5.8 mph - N/A   Overcast
4:04 AM 64.4 °F 62.6 °F 94% 30.03 in 6.0 mi NW 9.2 mph - N/A   Overcast
4:53 AM 62.1 °F 61.0 °F 96% 30.02 in 7.0 mi North 8.1 mph - N/A   Overcast
5:53 AM 57.9 °F 55.9 °F 93% 30.04 in 10.0 mi North 8.1 mph - N/A   Overcast
6:18 AM 57.2 °F 53.6 °F 88% 30.08 in 10.0 mi North 5.8 mph - N/A   Overcast
6:53 AM 55.9 °F 53.1 °F 90% 30.06 in 10.0 mi North 4.6 mph - N/A   Overcast
7:53 AM 55.0 °F 53.1 °F 93% 30.08 in 10.0 mi North 6.9 mph - N/A   Overcast
8:53 AM 55.9 °F 52.0 °F 87% 30.10 in 10.0 mi Variable 5.8 mph - N/A   Overcast
9:53 AM 57.0 °F 52.0 °F 83% 30.10 in 10.0 mi Variable 4.6 mph - N/A   Overcast
10:28 AM 57.2 °F 51.8 °F 82% 30.13 in 10.0 mi NNW 5.8 mph - N/A   Overcast
10:53 AM 57.9 °F 52.0 °F 81% 30.10 in 10.0 mi North 8.1 mph - N/A   Overcast
11:53 AM 60.1 °F 53.1 °F 78% 30.09 in 10.0 mi North 4.6 mph - N/A   Overcast
12:53 PM 64.0 °F 54.0 °F 70% 30.07 in 10.0 mi North 5.8 mph - N/A   Overcast
1:08 PM 62.6 °F 53.6 °F 72% 30.08 in 10.0 mi NNW 5.8 mph - N/A   Overcast
1:53 PM 64.9 °F 55.0 °F 70% 30.05 in 10.0 mi Variable 5.8 mph - N/A   Overcast
2:26 PM 66.2 °F 55.4 °F 68% 30.06 in 10.0 mi Variable 6.9 mph - N/A   Overcast
2:53 PM 66.0 °F 55.9 °F 70% 30.03 in 10.0 mi WNW 6.9 mph - N/A   Overcast
3:44 PM 66.2 °F 55.4 °F 68% 30.05 in 10.0 mi NW 9.2 mph - N/A   Overcast
3:53 PM 64.9 °F 55.0 °F 70% 30.03 in 10.0 mi NNW 5.8 mph - N/A   Overcast
4:40 PM 60.8 °F 53.6 °F 77% 30.05 in 10.0 mi NNW 8.1 mph 16.1 mph N/A   Overcast
4:53 PM 60.1 °F 53.1 °F 78% 30.04 in 10.0 mi NW 9.2 mph 17.3 mph N/A   Overcast
5:20 PM 57.2 °F 51.8 °F 82% 30.06 in 10.0 mi NW 8.1 mph 17.3 mph N/A   Overcast
5:53 PM 57.9 °F 51.1 °F 78% 30.06 in 10.0 mi Variable 5.8 mph - N/A   Overcast
6:53 PM 55.9 °F 50.0 °F 80% 30.07 in 10.0 mi North 5.8 mph - N/A   Overcast
7:53 PM 55.9 °F 50.0 °F 80% 30.09 in 10.0 mi North 6.9 mph - N/A   Overcast
8:53 PM 55.0 °F 50.0 °F 83% 30.10 in 10.0 mi North 9.2 mph - N/A   Overcast
9:53 PM 55.0 °F 50.0 °F 83% 30.12 in 10.0 mi North 8.1 mph - N/A   Overcast
10:36 PM 53.6 °F 51.8 °F 94% 30.13 in 10.0 mi NNW 4.6 mph - N/A   Overcast
11:53 PM 53.1 °F 50.0 °F 89% 30.11 in 5.0 mi Variable 5.8 mph - N/A   Overcast